Temp
40 42 43 44 45 46 47 49 48 49 50 52 57 65 65 66 66 67 67 67 67 66 65 64 64 63 62 62 64 63 61 60 61 58 57 57 59 59 57 58 57 58 58
36 39 41 42 43 44 46 48 47 48 49 51 52 59 67 66 67 67 67 67 66 66 65 64 64 64 62 62 64 64 61 60 61 59 57 53 56 59 59 56 57 56 57
33 35 37 39 41 43 45 46 46 47 48 50 52 57 65 65 64 65 65 66 66 66 65 65 65 65 64 64 64 64 62 59 60 62 59 54 54 56 57 56 57 56 55
35 36 36 37 40 43 46 46 47 46 49 48 49 51 58 63 65 65 65 65 66 66 65 64 65 66 66 65 64 64 63 62 59 60 61 60 59 55 53 55 57 57 55
35 35 36 38 41 43 44 46 45 46 47 47 48 49 52 60 65 64 64 64 65 65 65 64 61 64 65 65 65 64 63 63 62 61 58 58 57 56 54 54 53 55 55
36 37 39 39 40 43 44 44 44 44 46 46 46 48 48 51 59 63 63 63 64 64 64 64 62 64 65 65 65 65 64 62 63 63 61 59 57 55 53 52 51 54 53
35 36 36 37 38 40 42 44 43 43 44 44 45 47 48 50 54 60 63 63 63 63 63 64 63 62 64 65 65 64 64 63 62 62 62 63 60 58 57 55 52 53 53
36 36 37 37 39 39 41 42 41 42 43 44 44 46 49 49 53 56 62 64 64 64 64 63 64 64 64 64 64 64 63 63 62 62 62 62 63 60 59 57 54 52 52
35 35 37 37 38 40 40 41 41 42 43 43 44 45 47 48 49 52 56 64 65 64 64 64 63 64 64 63 64 64 63 63 62 62 62 62 62 60 61 59 58 58 52
34 36 37 37 38 40 41 41 41 41 42 43 44 44 46 47 49 51 54 55 64 64 64 63 63 63 64 64 64 63 64 63 62 63 62 62 62 61 61 60 59 59 58
34 35 37 38 39 40 41 41 40 40 41 43 44 44 45 45 47 48 50 53 62 65 64 64 63 63 64 65 64 64 65 64 63 63 62 61 62 61 61 61 61 58 58
34 36 36 38 38 38 39 40 40 40 41 43 43 43 44 44 45 46 48 51 53 60 64 64 64 63 64 64 64 64 65 64 63 63 62 61 61 61 61 61 61 61 59
33 34 35 36 37 38 38 39 39 40 41 42 42 43 42 43 44 45 46 48 51 54 57 64 63 63 63 63 64 65 65 65 64 63 62 62 61 60 61 62 60 60 60
30 32 33 34 36 37 37 38 38 40 40 41 41 41 41 42 43 44 45 46 48 51 53 59 63 64 64 64 64 65 64 64 64 64 64 63 62 62 61 61 61 60 58
27 29 31 32 34 36 36 37 38 39 40 40 39 39 41 43 43 43 44 44 46 47 50 52 60 64 63 63 63 65 64 64 64 64 64 64 62 57 59 62 61 60 58
25 28 31 33 33 35 36 36 37 38 39 39 39 40 40 42 42 42 42 43 43 44 46 48 51 61 62 52 50 57 63 64 64 63 63 64 55 54 50 50 50 58 59
25 28 30 32 33 34 35 34 35 37 37 37 39 39 39 39 40 41 41 41 41 42 43 46 49 52 61 49 48 48 62 63 64 64 64 63 64 55 61 48 47 48 48
26 28 30 32 34 35 35 35 36 37 36 36 37 38 38 38 38 40 40 39 40 40 42 44 48 50 54 48 46 45 60 61 63 64 64 64 64 62 61 61 57 57 56
29 28 30 33 34 34 36 35 35 36 36 36 36 38 37 36 37 36 38 39 39 39 41 44 45 47 49 47 46 46 57 59 61 62 64 63 63 56 50 61 60 59 59
30 30 31 33 34 34 35 34 34 34 34 36 37 37 37 36 36 37 38 38 39 39 41 41 43 42 43 41 39 45 58 57 58 60 61 48 61 49 45 59 61 59 59
31 33 33 31 33 35 35 33 33 32 35 37 37 37 37 35 37 37 38 37 38 38 38 39 40 41 41 41 39 38 51 58 58 59 59 60 45 45 45 48 62 60 61
30 32 31 31 33 34 34 32 31 35 36 36 36 36 36 36 37 36 38 37 36 36 36 37 37 39 40 38 39 38 38 39 50 58 60 59 47 47 45 45 51 46 46
29 31 30 30 32 32 33 30 32 34 35 35 34 35 35 36 35 34 35 36 35 34 34 35 35 35 38 39 37 37 37 37 40 47 50 47 46 44 43 42 43 42 55
28 30 29 28 28 31 32 32 33 34 34 33 33 34 34 34 35 35 35 36 35 34 34 34 34 34 35 36 37 38 38 37 39 39 44 43 42 43 48 46 43 52 58
28 29 28 27 28 30 31 32 33 33 32 33 32 32 33 32 33 34 34 37 37 36 34 34 34 33 33 35 36 36 36 36 37 36 39 42 43 45 47 47 49 50 54
28 27 27 27 28 29 30 32 34 33 31 30 31 31 31 32 33 33 34 37 37 37 36 35 35 36 36 36 37 37 36 36 35 37 35 35 37 45 46 46 48 49 47
MSLP
1023.93 1022.96 1021.93 1020.88 1019.72 1018.85 1017.79 1016.69 1015.80 1015.02 1014.07 1013.04 1011.89 1010.37 1010.14 1010.45 1010.91 1011.20 1011.50 1011.67 1012.28 1012.68 1013.10 1014.18 1014.81 1015.67 1016.25 1016.61 1017.13 1017.15 1018.16 1019.49 1019.93 1021.37 1022.49 1023.02 1023.16 1023.48 1023.52 1023.72 1023.96 1024.34 1024.69
1024.08 1022.95 1022.10 1021.13 1019.93 1019.09 1018.46 1017.45 1016.55 1015.66 1014.80 1013.94 1012.78 1011.21 1009.49 1010.01 1010.47 1010.82 1011.08 1011.36 1011.72 1012.27 1012.65 1013.63 1014.75 1014.92 1015.93 1016.78 1016.82 1017.07 1018.28 1019.16 1019.77 1020.54 1021.85 1022.82 1023.43 1023.51 1023.62 1023.78 1023.94 1024.17 1024.48
1024.76 1023.60 1022.57 1021.74 1020.59 1019.54 1018.72 1017.98 1017.18 1016.32 1015.23 1014.29 1012.83 1011.03 1009.26 1009.52 1010.04 1010.50 1010.70 1010.83 1011.20 1011.88 1012.52 1013.08 1013.91 1013.93 1014.65 1015.76 1016.41 1016.84 1017.28 1018.37 1019.36 1019.84 1020.37 1021.71 1022.15 1022.94 1023.29 1023.58 1023.78 1024.00 1024.24
1025.11 1024.17 1023.10 1022.09 1021.16 1020.43 1019.63 1018.42 1017.58 1016.70 1015.65 1014.76 1013.68 1012.53 1010.60 1009.33 1009.26 1009.65 1010.23 1010.49 1010.65 1011.30 1012.08 1012.87 1013.32 1013.85 1013.71 1014.30 1015.00 1016.26 1016.99 1017.81 1018.81 1019.77 1019.85 1020.25 1020.58 1021.90 1022.94 1023.15 1023.31 1023.58 1023.80
1025.17 1024.22 1023.52 1022.77 1021.97 1021.06 1019.99 1018.84 1017.87 1016.95 1016.02 1015.21 1014.28 1013.26 1011.55 1010.33 1009.00 1009.31 1010.13 1010.37 1010.49 1010.69 1011.66 1012.30 1013.27 1013.44 1013.95 1014.49 1014.83 1015.29 1016.13 1017.16 1017.82 1018.71 1019.57 1019.96 1020.49 1020.85 1021.68 1022.45 1022.89 1023.27 1023.20
1025.23 1024.32 1023.82 1023.24 1022.37 1021.27 1020.19 1019.13 1018.17 1017.32 1016.38 1015.46 1014.58 1013.42 1012.44 1011.42 1009.88 1009.18 1009.71 1010.10 1010.18 1010.42 1010.91 1011.78 1012.48 1012.96 1013.56 1014.04 1014.27 1014.95 1015.26 1016.56 1017.41 1018.08 1018.64 1018.93 1019.76 1020.42 1020.99 1021.67 1022.24 1022.35 1022.69
1025.43 1024.63 1023.86 1023.16 1022.42 1021.37 1020.43 1019.42 1018.57 1017.44 1016.66 1015.76 1014.87 1014.05 1012.81 1012.09 1010.45 1009.58 1009.16 1009.57 1009.95 1009.95 1010.23 1010.86 1011.90 1012.41 1012.99 1013.56 1013.95 1014.64 1015.06 1015.77 1016.70 1017.41 1017.94 1018.45 1018.72 1019.36 1019.97 1020.52 1021.24 1021.80 1022.12
1025.77 1025.16 1024.42 1023.78 1022.81 1021.80 1020.87 1019.79 1018.95 1017.87 1017.00 1016.31 1015.52 1014.38 1013.67 1012.26 1011.04 1010.34 1008.97 1008.51 1009.22 1009.51 1009.90 1010.11 1011.10 1011.80 1012.49 1012.87 1013.57 1014.19 1014.50 1014.97 1016.23 1016.74 1017.30 1017.80 1018.14 1018.71 1018.78 1019.44 1020.26 1021.33 1021.60
1026.02 1025.38 1024.62 1023.87 1022.97 1021.99 1021.17 1020.15 1019.30 1018.37 1017.41 1016.67 1015.77 1014.70 1013.42 1012.46 1011.47 1010.66 1009.59 1008.22 1008.37 1009.03 1009.62 1009.93 1010.42 1011.09 1011.75 1012.30 1012.86 1013.40 1013.47 1014.36 1015.48 1016.09 1016.65 1017.01 1017.36 1017.86 1018.12 1018.38 1018.87 1019.57 1020.64
1026.42 1025.51 1024.57 1023.73 1023.08 1022.32 1021.48 1020.48 1019.59 1018.70 1017.69 1016.84 1016.05 1015.19 1014.17 1012.93 1012.17 1010.97 1009.97 1008.59 1007.64 1008.53 1009.02 1009.40 1009.83 1010.24 1010.94 1011.67 1012.30 1012.66 1013.04 1014.01 1014.79 1015.29 1015.74 1016.23 1016.45 1016.94 1017.57 1017.86 1018.19 1018.60 1019.27
1026.91 1025.95 1024.90 1024.05 1023.30 1022.60 1021.70 1020.62 1019.78 1018.89 1017.85 1017.04 1016.43 1015.57 1014.36 1013.31 1012.28 1011.37 1010.26 1009.65 1008.26 1008.28 1008.03 1008.69 1008.99 1009.76 1010.22 1010.89 1011.52 1011.94 1012.49 1013.05 1013.82 1014.49 1014.88 1015.21 1015.62 1016.09 1016.92 1017.25 1017.61 1018.10 1018.47
1027.62 1026.50 1025.41 1024.50 1023.54 1022.81 1021.88 1020.94 1020.19 1019.32 1018.18 1017.53 1016.84 1015.79 1014.51 1013.32 1012.53 1011.85 1011.41 1010.33 1009.48 1008.03 1007.55 1007.63 1008.28 1008.98 1009.42 1009.93 1010.49 1010.98 1011.50 1012.03 1012.66 1013.24 1013.75 1014.27 1015.03 1015.40 1015.88 1016.41 1016.88 1017.13 1017.50
1028.21 1027.14 1026.12 1025.20 1024.09 1022.90 1022.22 1021.48 1020.74 1019.83 1018.47 1018.04 1017.38 1016.09 1014.75 1013.65 1012.73 1012.05 1011.48 1010.81 1009.60 1008.20 1007.25 1007.96 1007.47 1008.03 1008.23 1009.02 1009.43 1009.87 1010.39 1010.83 1011.20 1011.98 1012.68 1013.15 1013.83 1014.58 1014.86 1015.47 1015.92 1016.32 1016.55
1028.78 1027.73 1026.79 1025.70 1024.53 1023.48 1022.53 1022.04 1021.16 1020.40 1019.17 1018.76 1017.87 1016.57 1015.16 1014.13 1013.14 1012.48 1011.91 1011.04 1010.37 1009.34 1007.84 1008.66 1006.72 1006.53 1007.18 1007.74 1008.30 1008.86 1009.43 1009.81 1010.26 1010.80 1011.30 1012.01 1012.68 1013.29 1013.97 1014.67 1014.78 1015.41 1015.99
1029.14 1028.12 1027.19 1026.17 1025.13 1023.99 1022.90 1022.14 1021.33 1020.47 1019.41 1018.94 1017.99 1017.05 1015.79 1014.57 1013.65 1012.82 1012.28 1011.58 1010.88 1009.98 1009.25 1008.32 1006.91 1006.24 1006.29 1006.56 1007.15 1007.57 1008.30 1008.73 1009.16 1009.66 1010.29 1010.61 1011.22 1012.18 1012.87 1013.67 1014.01 1014.63 1015.11
1029.30 1028.27 1027.37 1026.41 1025.36 1024.43 1023.36 1022.37 1021.48 1020.69 1019.81 1019.24 1018.32 1017.38 1016.07 1015.03 1014.00 1013.24 1012.44 1011.37 1010.46 1010.18 1009.53 1008.27 1007.36 1005.67 1004.91 1005.55 1006.04 1006.22 1006.80 1007.55 1007.95 1008.46 1009.04 1009.80 1010.43 1011.08 1011.70 1012.43 1012.75 1013.08 1013.78
1029.25 1028.27 1027.41 1026.46 1025.51 1024.49 1023.65 1022.81 1021.87 1020.86 1020.00 1019.09 1018.05 1017.27 1016.45 1015.42 1014.18 1013.54 1012.64 1011.64 1010.56 1009.56 1008.80 1007.85 1007.40 1006.54 1004.08 1004.29 1005.12 1005.60 1005.57 1006.30 1006.86 1007.44 1007.72 1008.48 1009.19 1010.01 1010.69 1011.39 1011.65 1011.73 1012.09
1029.09 1028.23 1027.30 1026.36 1025.48 1024.66 1023.86 1023.09 1022.09 1021.26 1020.24 1019.26 1018.43 1017.54 1016.83 1015.77 1014.56 1013.61 1012.55 1011.47 1010.58 1009.84 1009.10 1007.87 1006.79 1005.90 1004.46 1003.67 1003.99 1004.75 1004.94 1004.74 1005.63 1006.01 1006.72 1006.97 1007.74 1008.50 1009.17 1010.05 1010.88 1011.26 1011.53
1028.76 1028.08 1027.22 1026.30 1025.45 1024.71 1023.95 1023.23 1022.55 1021.78 1020.93 1020.12 1019.45 1018.47 1017.20 1015.99 1014.84 1013.83 1012.64 1011.43 1010.42 1009.79 1009.33 1008.37 1007.21 1006.31 1005.12 1004.39 1003.79 1004.41 1004.53 1004.79 1004.05 1004.99 1005.53 1006.10 1006.64 1007.18 1008.04 1008.79 1009.28 1009.99 1010.30
1028.33 1027.75 1027.04 1026.30 1025.46 1024.68 1023.94 1023.29 1022.59 1021.83 1021.26 1020.57 1019.50 1018.23 1017.17 1016.12 1015.12 1014.42 1013.31 1011.78 1010.72 1010.16 1009.57 1008.39 1007.95 1007.35 1006.65 1006.10 1005.41 1003.98 1003.48 1003.67 1004.24 1003.78 1004.73 1005.34 1005.68 1006.24 1006.97 1007.54 1007.96 1007.98 1008.79
1028.01 1027.46 1027.00 1026.40 1025.58 1024.80 1024.08 1023.37 1022.69 1022.23 1021.56 1020.55 1019.41 1018.13 1017.01 1016.05 1015.66 1014.36 1012.69 1012.31 1011.38 1010.77 1010.00 1009.04 1008.48 1007.88 1007.40 1006.99 1006.70 1005.70 1003.94 1003.52 1003.68 1003.94 1003.81 1004.12 1004.81 1005.41 1006.05 1006.48 1006.49 1006.72 1007.39
1027.82 1027.42 1026.91 1026.36 1025.61 1024.88 1024.16 1023.41 1022.72 1021.91 1020.91 1020.05 1019.22 1018.38 1017.63 1016.26 1014.94 1014.30 1013.53 1012.80 1012.10 1011.60 1010.79 1009.93 1009.30 1008.89 1008.29 1007.67 1007.39 1006.54 1005.06 1004.32 1004.00 1003.02 1002.94 1002.93 1003.15 1003.86 1004.78 1005.47 1005.37 1005.78 1006.25
1027.95 1027.38 1026.95 1026.41 1025.84 1025.17 1024.48 1023.72 1022.95 1022.15 1021.20 1020.18 1019.19 1018.53 1017.39 1016.51 1015.99 1015.01 1014.25 1013.44 1012.87 1012.19 1011.52 1011.06 1010.41 1009.45 1008.67 1008.07 1007.73 1006.82 1005.65 1005.12 1004.62 1003.36 1002.41 1002.29 1002.61 1003.38 1003.98 1004.37 1004.62 1004.98 1005.46
1028.02 1027.52 1027.00 1026.51 1025.97 1025.41 1024.75 1024.13 1023.14 1022.25 1021.40 1020.46 1019.69 1018.87 1018.01 1017.21 1016.63 1015.90 1015.28 1014.33 1013.46 1012.68 1012.32 1011.98 1011.44 1010.72 1009.46 1008.59 1007.87 1007.18 1005.96 1005.30 1004.54 1003.77 1003.26 1003.04 1002.75 1002.83 1003.14 1003.63 1003.83 1003.95 1004.35
1028.04 1027.64 1027.23 1026.66 1026.11 1025.52 1024.89 1024.23 1023.40 1022.58 1021.91 1021.14 1020.34 1019.47 1018.75 1018.10 1017.33 1016.35 1015.54 1014.69 1014.06 1013.80 1013.38 1013.03 1012.48 1011.59 1010.74 1010.29 1009.65 1008.22 1006.67 1006.04 1004.74 1003.99 1003.24 1003.06 1002.74 1002.72 1002.65 1002.70 1002.82 1003.28 1003.53
1028.12 1027.73 1027.26 1026.83 1026.27 1025.69 1025.07 1024.33 1023.56 1022.97 1022.23 1021.50 1020.75 1019.91 1019.00 1017.87 1016.99 1016.17 1015.59 1014.74 1013.96 1013.77 1014.02 1013.47 1013.14 1012.40 1011.86 1011.20 1010.06 1008.34 1007.42 1006.10 1005.23 1004.60 1004.19 1003.67 1003.22 1002.46 1001.87 1001.76 1002.07 1002.24 1002.64
Wind_Speed
16 16 17 19 18 18 19 20 20 19 15 12 11 8 9 9 7 9 11 11 10 12 12 8 11 11 11 8 10 10 12 6 9 8 5 3 3 3 3 3 4 5 4
20 21 21 20 20 20 19 19 19 19 14 11 12 10 8 6 8 5 10 11 13 13 12 12 11 14 13 10 10 10 8 4 8 6 4 3 2 2 4 3 4 5 4
20 21 22 21 20 21 21 19 19 19 16 17 12 12 3 3 5 9 8 11 15 15 14 14 14 17 15 14 10 9 10 8 5 12 5 4 3 3 3 5 5 6 5
18 18 21 22 21 19 19 19 19 18 16 18 14 15 10 6 6 7 5 8 15 16 15 14 12 11 11 17 17 11 9 9 10 5 0 1 5 4 3 2 6 6 7
19 19 19 20 19 18 18 18 17 18 18 17 15 11 12 10 6 6 8 11 11 16 17 15 9 7 9 11 13 15 13 9 10 9 3 2 1 3 3 4 3 4 6
18 19 17 18 18 18 18 17 19 18 18 17 17 16 15 13 8 9 8 8 9 11 15 15 14 9 10 12 12 13 16 11 10 9 6 6 4 4 3 2 2 5 3
16 18 19 19 20 21 21 17 20 19 19 19 17 16 15 15 10 9 11 10 8 8 14 17 15 11 10 11 12 13 14 14 11 12 10 8 7 3 3 3 3 2 2
16 17 18 17 18 20 21 20 20 19 18 18 17 15 13 9 8 9 8 10 10 12 13 15 15 17 12 11 11 10 11 11 10 13 11 9 9 6 4 5 5 2 3
19 18 18 16 18 18 20 20 20 19 18 17 15 14 15 14 13 13 9 7 12 9 13 14 15 16 15 13 13 10 10 10 12 12 13 10 8 4 4 4 4 5 4
16 18 16 17 16 17 16 18 18 18 18 18 15 13 13 14 13 11 11 9 8 12 14 15 17 15 16 15 15 12 14 13 11 12 13 13 9 7 6 6 5 3 4
16 16 16 16 15 16 17 17 17 18 18 18 15 14 13 14 13 12 12 12 12 14 15 16 16 17 18 17 16 16 16 19 15 15 14 15 13 8 8 6 7 6 4
15 16 15 16 16 16 16 17 17 17 17 18 16 15 14 15 14 14 13 13 12 8 9 15 18 17 17 18 19 19 18 19 20 18 13 13 9 13 10 8 11 10 9
15 14 15 15 15 16 15 16 16 17 17 17 17 15 15 15 15 15 14 12 14 10 8 14 17 18 18 18 19 18 18 20 19 17 18 18 15 13 11 12 10 9 6
13 13 12 14 15 15 15 14 15 15 15 16 17 16 15 15 14 15 13 14 13 10 6 16 20 19 19 19 19 21 20 18 16 18 18 18 17 16 15 13 13 10 9
12 12 12 13 13 15 15 15 14 15 14 15 15 16 16 14 14 15 14 12 11 11 9 12 15 16 18 16 19 20 20 20 19 17 16 17 18 20 18 12 13 11 10
12 12 11 13 14 14 15 15 15 16 14 14 14 15 15 15 15 14 15 13 12 11 11 10 13 14 12 14 18 17 16 18 18 18 17 17 18 19 21 21 17 17 14
10 11 12 13 13 14 13 14 15 15 14 13 14 14 15 15 15 15 16 13 13 14 14 11 9 13 12 18 20 21 15 16 17 19 17 17 15 19 17 19 20 19 19
8 10 11 13 13 13 13 13 14 14 14 13 14 14 14 15 15 16 17 17 12 12 12 12 12 13 13 14 19 21 21 19 19 18 18 19 19 17 19 17 16 17 16
7 7 9 12 12 12 13 13 12 12 13 14 12 13 13 14 15 16 18 16 14 13 12 11 12 13 17 13 18 16 15 16 17 16 16 16 17 17 20 19 18 17 16
7 8 10 11 12 13 12 11 11 12 13 13 13 12 12 12 12 15 15 15 15 13 11 12 11 12 14 21 26 11 10 12 11 11 16 18 18 17 20 20 18 18 16
9 9 10 9 12 12 13 11 11 12 13 13 12 13 13 13 11 12 14 13 16 14 14 14 13 13 13 14 22 19 7 8 9 14 13 12 18 14 20 24 19 17 14
8 9 9 9 10 12 12 13 13 14 14 14 12 13 13 10 11 12 15 12 13 15 15 15 13 11 12 14 18 21 14 11 6 12 13 12 18 23 23 20 22 16 12
8 9 8 10 10 11 12 13 13 13 14 14 13 12 14 12 11 9 12 12 10 10 11 12 13 13 12 11 18 18 17 11 6 7 7 9 15 21 18 19 17 12 12
7 8 10 11 11 11 12 11 13 13 12 13 12 12 12 14 11 8 6 8 11 9 10 11 11 12 13 13 13 12 11 10 6 6 7 6 5 8 11 8 11 11 13
6 8 9 10 12 12 12 11 12 12 10 11 10 11 9 10 9 8 6 6 8 11 10 9 9 10 11 14 20 18 13 12 10 7 2 3 4 6 7 5 7 10 11
7 9 10 10 10 10 11 13 12 13 13 10 8 8 8 9 9 8 9 11 11 12 18 21 17 10 14 19 23 26 23 26 21 4 4 4 4 6 8 8 9 8 10
Wind_Direction
352 354 356 350 353 357 353 354 352 349 348 341 332 213 213 197 195 195 198 173 177 163 158 151 147 157 181 181 195 141 135 135 130 121 84 61 98 157 160 156 159 168 178
359 356 356 355 352 352 353 350 353 347 344 339 320 296 193 199 204 188 188 194 172 161 149 161 164 161 174 199 196 149 148 126 162 135 121 139 141 198 189 179 187 185 169
357 356 354 352 350 353 350 350 347 346 344 338 332 330 175 138 170 191 188 191 178 171 164 173 179 171 165 184 190 172 157 156 166 163 137 155 182 128 170 205 199 184 188
358 357 357 353 352 348 344 346 348 345 346 342 338 326 312 204 200 187 198 190 186 183 179 180 188 188 181 181 180 174 168 158 171 174 110 134 143 168 181 197 208 194 198
360 359 359 353 349 347 347 344 347 346 348 346 340 332 336 309 190 166 194 199 189 184 189 186 189 181 179 185 183 174 164 172 166 182 135 126 149 89 137 180 193 204 204
355 355 358 358 349 350 352 348 346 348 347 346 343 340 341 327 310 175 194 200 198 189 188 193 193 190 189 189 181 181 168 169 184 191 179 154 177 177 159 140 172 212 210
354 355 355 353 354 351 350 352 348 347 347 346 345 334 342 321 321 300 193 186 205 193 187 186 191 189 188 183 178 177 176 176 183 188 197 195 197 150 155 136 144 170 179
352 352 348 347 348 351 349 352 350 345 347 345 339 341 330 328 321 311 267 192 199 209 193 192 191 195 191 182 177 180 176 170 191 195 197 199 202 183 170 157 142 151 201
348 342 340 343 343 346 349 346 349 347 348 342 340 340 341 342 330 313 317 245 195 210 207 200 201 196 200 190 188 193 182 179 199 204 202 206 194 184 188 160 159 155 182
341 344 341 341 339 340 341 342 347 349 347 344 344 339 342 335 326 324 319 327 228 201 205 202 201 200 198 196 199 199 196 192 203 204 206 208 212 204 204 197 180 172 164
339 337 339 338 335 338 342 343 345 346 351 348 341 339 340 339 341 336 341 330 303 222 201 200 202 202 202 201 199 205 201 204 204 208 201 209 196 201 204 199 201 200 159
334 337 338 338 334 339 343 343 341 344 350 346 340 342 342 347 346 345 338 330 311 330 241 205 201 200 203 204 207 205 206 204 207 209 209 209 202 205 209 204 211 210 200
330 335 340 340 335 334 340 340 338 340 350 346 338 344 346 345 344 344 342 335 331 335 322 259 202 204 200 204 205 208 208 208 207 200 202 207 202 212 210 214 208 208 198
326 325 334 337 334 333 335 335 333 334 346 340 341 343 347 347 342 343 343 338 332 330 7 276 261 204 204 204 205 207 213 210 207 205 201 202 199 208 209 213 205 200 193
323 324 329 331 333 334 334 333 332 332 340 338 342 342 343 353 342 344 339 340 335 328 311 289 271 223 205 205 208 207 211 211 214 213 212 205 204 207 209 207 211 200 201
312 318 322 327 333 332 333 331 330 329 332 330 333 340 347 343 357 341 340 339 339 329 316 314 307 256 211 206 199 209 205 212 211 211 206 210 205 206 202 205 203 195 197
304 315 323 323 326 329 328 328 325 325 328 326 333 338 343 343 347 349 348 346 343 333 325 319 307 291 250 193 197 202 209 212 217 221 216 210 214 206 210 213 212 203 201
302 314 323 326 324 325 327 326 329 327 329 329 334 334 333 343 345 346 354 352 347 342 329 324 322 318 310 223 200 201 218 221 217 218 222 218 213 209 207 208 214 217 212
293 290 306 319 320 323 327 328 327 333 340 335 329 328 324 332 348 348 352 349 351 347 343 339 333 341 326 293 211 195 215 226 227 223 221 221 222 213 200 208 217 218 221
302 313 315 320 322 328 330 331 332 340 338 331 326 325 329 326 342 350 351 354 356 350 346 355 357 357 354 346 357 256 220 210 211 207 229 217 218 208 192 207 214 215 214
315 322 325 315 321 327 332 332 334 334 325 325 327 332 338 335 328 344 357 355 359 358 358 2 0 3 1 353 345 341 268 221 209 224 214 215 207 215 198 204 214 218 215
321 321 322 321 319 328 333 333 332 328 331 332 331 334 333 334 335 349 357 349 1 5 3 3 3 1 359 357 343 335 353 332 284 222 217 213 196 207 210 203 218 205 201
318 319 321 325 328 330 332 329 327 332 331 332 338 333 337 343 332 342 355 0 353 360 2 6 1 353 355 355 347 338 336 332 322 291 309 245 207 209 213 217 213 203 208
318 328 330 331 331 332 331 330 330 333 332 336 336 335 340 339 339 336 343 354 6 357 357 353 351 350 356 354 349 342 345 327 308 311 273 228 220 208 220 218 209 208 219
325 336 333 331 334 335 335 338 339 339 336 336 336 336 337 331 333 339 332 355 22 12 1 356 347 348 352 352 349 348 350 337 315 306 303 242 200 211 205 207 194 203 218
334 336 334 338 332 338 347 347 354 353 349 340 336 332 332 337 341 347 342 347 5 17 18 15 6 348 346 337 347 1 355 356 347 0 359 354 328 270 214 205 207 189 202